Flag for Germany Weather past 2 weeks in Heidenheim an der Brenz, Baden-Württemberg, Germany

Now
43 °F

Overcast.


Feels Like: 39 °F
Forecast: 33 / 56 °F
Wind: 6 mph from Northwest

Location: Stoetten

Current Time: Apr 28, 2015 at 6:18:06 PM

Latest Report: Apr 28, 2015 at 5:00 PM


Visibility: 31 mi

Pressure: 30.09 "Hg

Humidity: 75%

Dew point: 36 °F

Location of Heidenheim an der BrenzLocation

Historic Weather in Heidenheim an der Brenz — Graph

°F

Heidenheim an der Brenz temperature yesterday

Maximum temperature yesterday: 62 °F (at 4:00 PM)
Minimum temperature yesterday: 49 °F (at 5:00 AM)
Average temperature yesterday: 55 °F

Past Weeks' High & Low Weather Summary

 TemperatureHumidityPressure
High70 °F (Apr 15, 5:00 PM)100% (Apr 28, 12:00 AM)30.46 "Hg (Apr 28, 12:00 AM)
Low32 °F (Apr 19, 5:00 AM)24% (Apr 15, 5:00 PM)29.47 "Hg (Apr 27, 6:00 PM)
Average50 °F61%30.06 "Hg
* Reported Apr 13 5:00 PM — Apr 28 5:00 PM, Heidenheim an der Brenz, Weather by CustomWeather, © 2015

Note: Actual official high and low records may vary slightly from our data, if they occured in-between our weather recording intervals... More about our weather records

Advertising

Heidenheim an der Brenz weather history for previous 24 hours

 ConditionsComfort  
Time TempWeatherWind HumidityBarometerVisibility
5:00 PM
Tue, Apr 28
43 °FOvercast.6 mph75%30.09 "Hg31 mi
4:00 PM41 °FOvercast.7 mph79%30.08 "Hg31 mi
3:00 PM43 °FOvercast.7 mph81%30.05 "Hg25 mi
2:00 PM40 °FOvercast.8 mph83%30.04 "Hg19 mi
1:00 PM39 °FFog.8 mph100%30.03 "Hg2 mi
12:00 PM38 °FLight rain. Dense fog.9 mph100%30.00 "Hg0 mi
11:00 AM38 °FLight rain. Dense fog.9 mph100%29.97 "Hg0 mi
10:00 AM38 °FLight rain. Dense fog.9 mph100%29.92 "Hg0 mi
9:00 AM39 °FLight rain. Dense fog.9 mph100%29.87 "Hg0 mi
8:00 AM40 °FLight rain. Dense fog.10 mph100%29.83 "Hg0 mi
7:00 AM41 °FRain. Low clouds.10 mph100%29.77 "Hg1 mi
6:00 AM41 °FRain. Low clouds.8 mph100%29.74 "Hg1 mi
5:00 AM43 °FRain. Low clouds.7 mph100%29.71 "Hg0 mi
4:00 AM44 °FDrizzle. Low clouds.7 mph100%29.68 "Hg0 mi
3:00 AM45 °FLight freezing rain. Low clouds.6 mph100%29.67 "Hg0 mi
2:00 AM46 °FLow clouds.6 mph100%29.65 "Hg0 mi
1:00 AM47 °FLight rain. Low clouds.6 mph100%29.62 "Hg4 mi
12:00 AM49 °FRain. Low clouds.5 mph100%29.62 "Hg0 mi
11:00 PM
Mon, Apr 27
50 °FDrizzle. Low clouds.8 mph97%29.59 "Hg13 mi
10:00 PM54 °FOvercast.5 mph90%29.56 "Hg7 mi
9:00 PM56 °FOvercast.6 mph79%29.53 "Hg22 mi
8:00 PM57 °FOvercast.6 mph75%29.50 "Hg47 mi
7:00 PM59 °FOvercast.6 mph73%29.50 "Hg47 mi
6:00 PM60 °FPartly sunny.5 mph69%29.47 "Hg47 mi
Weather by CustomWeather, © 2015

See weather overviewHow to use our weather pages